• In Uzbekistan
  • List of Countries
  • For 7 days
  • Water Temperature
  • Satellite Maps
  • Weather Map
  • Weather Widgets
  • user-avatar
    Login

    Hourly Weather Qala i Naw

    Today, 18 July, Thursday

    Time Temperature Precipitation Wind Pressure Humidity
    00:00 +24°C° 0 mm 1 mps 675 mmHg 19%
    01:00 +21°C° 0 mm 0 mps 675 mmHg 20%
    02:00 +20°C° 0 mm 0 mps 675 mmHg 21%
    03:00 +20°C° 0 mm 0 mps 674 mmHg 22%
    04:00 +19°C° 0 mm 0 mps 675 mmHg 22%
    05:00 +23°C° 0 mm 0 mps 676 mmHg 18%
    06:00 +28°C° 0 mm 1 mps 677 mmHg 14%
    07:00 +32°C° 0 mm 1 mps 677 mmHg 10%
    08:00 +34°C° 0 mm 2 mps 678 mmHg 9%
    09:00 +36°C° 0 mm 3 mps 678 mmHg 9%
    10:00 +39°C° 0 mm 5 mps 678 mmHg 8%
    11:00 +41°C° 0 mm 6 mps 678 mmHg 7%
    12:00 +43°C° 0 mm 7 mps 678 mmHg 6%
    13:00 +44°C° 0 mm 9 mps 678 mmHg 5%
    14:00 +44°C° 0 mm 9 mps 677 mmHg 5%
    15:00 +44°C° 0 mm 10 mps 677 mmHg 5%
    16:00 +44°C° 0 mm 10 mps 677 mmHg 5%
    17:00 +41°C° 0 mm 8 mps 677 mmHg 6%
    18:00 +39°C° 0 mm 6 mps 677 mmHg 8%
    19:00 +36°C° 0 mm 5 mps 677 mmHg 9%
    20:00 +33°C° 0 mm 4 mps 677 mmHg 11%
    21:00 +30°C° 0 mm 3 mps 677 mmHg 12%
    22:00 +28°C° 0 mm 2 mps 676 mmHg 14%
    23:00 +27°C° 0 mm 1 mps 676 mmHg 14%

    Tomorrow, 19 July, Friday

    Time Temperature Precipitation Wind Pressure Humidity
    00:00 +26°C° 0 mm 1 mps 676 mmHg 15%
    01:00 +26°C° 0 mm 1 mps 676 mmHg 16%
    02:00 +25°C° 0 mm 1 mps 676 mmHg 17%
    03:00 +24°C° 0 mm 1 mps 676 mmHg 19%
    04:00 +21°C° 0 mm 0 mps 676 mmHg 20%
    05:00 +26°C° 0 mm 1 mps 676 mmHg 17%
    06:00 +29°C° 0 mm 1 mps 677 mmHg 14%
    07:00 +32°C° 0 mm 1 mps 678 mmHg 10%
    08:00 +36°C° 0 mm 3 mps 678 mmHg 9%
    09:00 +39°C° 0 mm 5 mps 679 mmHg 8%
    10:00 +41°C° 0 mm 6 mps 679 mmHg 7%
    11:00 +43°C° 0 mm 7 mps 679 mmHg 6%
    12:00 +44°C° 0 mm 9 mps 679 mmHg 6%
    13:00 +45°C° 0 mm 10 mps 679 mmHg 5%
    14:00 +45°C° 0 mm 10 mps 678 mmHg 5%
    15:00 +45°C° 0 mm 10 mps 678 mmHg 5%
    16:00 +45°C° 0 mm 10 mps 678 mmHg 5%
    17:00 +43°C° 0 mm 8 mps 678 mmHg 6%
    18:00 +40°C° 0 mm 7 mps 678 mmHg 7%
    19:00 +36°C° 0 mm 5 mps 677 mmHg 8%
    20:00 +34°C° 0 mm 4 mps 677 mmHg 10%
    21:00 +31°C° 0 mm 3 mps 677 mmHg 11%
    22:00 +29°C° 0 mm 2 mps 677 mmHg 13%
    23:00 +28°C° 0 mm 1 mps 677 mmHg 14%

    Day after tomorrow, 20 July, Saturday

    Time Temperature Precipitation Wind Pressure Humidity
    00:00 +26°C° 0 mm 1 mps 677 mmHg 15%
    01:00 +25°C° 0 mm 1 mps 677 mmHg 15%
    02:00 +25°C° 0 mm 1 mps 677 mmHg 16%
    03:00 +24°C° 0 mm 1 mps 677 mmHg 17%
    04:00 +21°C° 0 mm 0 mps 677 mmHg 18%
    05:00 +26°C° 0 mm 1 mps 678 mmHg 15%
    06:00 +30°C° 0 mm 1 mps 679 mmHg 12%
    07:00 +33°C° 0 mm 1 mps 680 mmHg 10%
    08:00 +36°C° 0 mm 3 mps 680 mmHg 9%
    09:00 +39°C° 0 mm 5 mps 680 mmHg 8%
    10:00 +41°C° 0 mm 7 mps 681 mmHg 8%
    11:00 +43°C° 0 mm 8 mps 681 mmHg 7%
    12:00 +44°C° 0 mm 9 mps 680 mmHg 6%
    13:00 +45°C° 0 mm 10 mps 680 mmHg 6%
    14:00 +45°C° 0 mm 10 mps 680 mmHg 6%
    15:00 +45°C° 0 mm 10 mps 680 mmHg 6%
    16:00 +47°C° 0 mm 10 mps 679 mmHg 5%
    17:00 +43°C° 0 mm 9 mps 680 mmHg 6%
    18:00 +40°C° 0 mm 7 mps 680 mmHg 7%
    19:00 +38°C° 0 mm 6 mps 680 mmHg 8%
    20:00 +35°C° 0 mm 5 mps 680 mmHg 10%
    21:00 +34°C° 0 mm 4 mps 680 mmHg 12%
    22:00 +31°C° 0 mm 3 mps 680 mmHg 14%
    23:00 +30°C° 0 mm 3 mps 680 mmHg 16%

    21 July, Sunday

    Time Temperature Precipitation Wind Pressure Humidity
    00:00 +28°C° 0 mm 2 mps 680 mmHg 18%
    01:00 +27°C° 0 mm 2 mps 679 mmHg 20%
    02:00 +26°C° 0 mm 1 mps 679 mmHg 22%
    03:00 +26°C° 0 mm 1 mps 679 mmHg 24%
    04:00 +25°C° 0 mm 1 mps 679 mmHg 26%
    05:00 +27°C° 0 mm 2 mps 680 mmHg 23%
    06:00 +30°C° 0 mm 2 mps 680 mmHg 21%
    07:00 +33°C° 0 mm 3 mps 681 mmHg 18%
    08:00 +35°C° 0 mm 5 mps 681 mmHg 17%
    09:00 +38°C° 0 mm 6 mps 681 mmHg 15%
    10:00 +40°C° 0 mm 8 mps 681 mmHg 14%
    11:00 +42°C° 0 mm 9 mps 681 mmHg 12%
    12:00 +44°C° 0 mm 10 mps 681 mmHg 11%
    13:00 +47°C° 0 mm 11 mps 681 mmHg 10%
    14:00 +47°C° 0 mm 11 mps 681 mmHg 10%
    15:00 +47°C° 0 mm 12 mps 680 mmHg 10%
    16:00 +46°C° 0 mm 12 mps 680 mmHg 10%
    17:00 +44°C° 0 mm 10 mps 680 mmHg 11%
    18:00 +41°C° 0 mm 8 mps 680 mmHg 12%
    19:00 +39°C° 0 mm 6 mps 680 mmHg 14%
    20:00 +36°C° 0 mm 6 mps 680 mmHg 15%
    21:00 +35°C° 0 mm 5 mps 680 mmHg 17%
    22:00 +34°C° 0 mm 5 mps 680 mmHg 18%
    23:00 +32°C° 0 mm 5 mps 680 mmHg 23%

    22 July, Monday

    Time Temperature Precipitation Wind Pressure Humidity
    00:00 +30°C° 0 mm 4 mps 680 mmHg 28%
    01:00 +29°C° 0 mm 3 mps 680 mmHg 33%
    02:00 +28°C° 0 mm 3 mps 680 mmHg 36%
    03:00 +27°C° 0 mm 3 mps 680 mmHg 38%
    04:00 +26°C° 0 mm 2 mps 680 mmHg 41%
    05:00 +28°C° 0 mm 3 mps 680 mmHg 38%
    06:00 +29°C° 0 mm 3 mps 681 mmHg 34%
    07:00 +32°C° 0 mm 4 mps 681 mmHg 30%
    08:00 +33°C° 0 mm 5 mps 681 mmHg 27%
    09:00 +35°C° 0 mm 6 mps 681 mmHg 24%
    10:00 +36°C° 0 mm 7 mps 681 mmHg 20%
    11:00 +38°C° 0 mm 8 mps 681 mmHg 17%
    12:00 +39°C° 0 mm 9 mps 680 mmHg 14%
    13:00 +40°C° 0 mm 9 mps 680 mmHg 11%
    14:00 +40°C° 0 mm 10 mps 680 mmHg 10%
    15:00 +40°C° 0 mm 10 mps 679 mmHg 9%
    16:00 +40°C° 0 mm 10 mps 679 mmHg 8%
    17:00 +38°C° 0 mm 9 mps 679 mmHg 10%
    18:00 +35°C° 0 mm 8 mps 679 mmHg 12%
    19:00 +33°C° 0 mm 6 mps 678 mmHg 14%
    20:00 +30°C° 0 mm 5 mps 678 mmHg 16%
    21:00 +28°C° 0 mm 3 mps 678 mmHg 19%
    22:00 +25°C° 0 mm 2 mps 678 mmHg 21%
    23:00 +24°C° 0 mm 1 mps 677 mmHg 22%

    23 July, Tuesday

    Time Temperature Precipitation Wind Pressure Humidity
    00:00 +24°C° 0 mm 1 mps 677 mmHg 24%
    01:00 +23°C° 0 mm 1 mps 676 mmHg 25%
    02:00 +22°C° 0 mm 1 mps 676 mmHg 26%
    03:00 +19°C° 0 mm 0 mps 676 mmHg 28%
    04:00 +19°C° 0 mm 0 mps 676 mmHg 29%
    05:00 +21°C° 0 mm 0 mps 676 mmHg 26%
    06:00 +24°C° 0 mm 0 mps 677 mmHg 22%
    07:00 +27°C° 0 mm 0 mps 678 mmHg 18%
    08:00 +31°C° 0 mm 2 mps 678 mmHg 17%
    09:00 +34°C° 0 mm 3 mps 678 mmHg 16%
    10:00 +36°C° 0 mm 4 mps 678 mmHg 15%
    11:00 +38°C° 0 mm 6 mps 678 mmHg 13%
    12:00 +40°C° 0 mm 7 mps 678 mmHg 12%
    13:00 +43°C° 0 mm 9 mps 678 mmHg 11%
    14:00 +43°C° 0 mm 9 mps 678 mmHg 11%
    15:00 +43°C° 0 mm 10 mps 677 mmHg 10%
    16:00 +43°C° 0 mm 10 mps 677 mmHg 9%
    17:00 +40°C° 0 mm 9 mps 677 mmHg 10%
    18:00 +38°C° 0 mm 8 mps 677 mmHg 11%
    19:00 +35°C° 0 mm 6 mps 677 mmHg 13%
    20:00 +33°C° 0 mm 5 mps 677 mmHg 14%
    21:00 +30°C° 0 mm 4 mps 676 mmHg 16%
    22:00 +27°C° 0 mm 2 mps 676 mmHg 18%
    23:00 +26°C° 0 mm 2 mps 676 mmHg 19%
    Show more